Wind_Speed
37 36 42 45 37 33 20 19 23 22 21 23 26 27 27 28 29 30 32 33 33 33 35 42 42 43 48 49 45 43 39 38 37 37 39 37 35 40 46 46 46 49 49
31 34 35 33 35 32 30 26 24 22 23 25 26 26 26 27 31 33 35 36 35 35 34 36 38 42 41 37 36 33 32 30 32 35 39 37 35 34 37 37 40 39 42
28 28 31 33 34 33 30 26 24 24 24 25 25 25 27 30 33 36 36 36 36 37 38 36 38 39 38 32 30 30 30 31 31 31 32 38 38 39 36 41 39 40 40
30 28 35 38 36 31 31 29 27 26 27 27 27 28 31 34 34 35 36 38 35 33 29 28 29 29 29 29 28 26 25 26 26 27 27 29 31 29 31 32 32 33 33
32 36 34 34 37 36 29 27 26 27 27 30 32 32 31 31 32 32 31 28 25 24 24 25 25 24 25 27 27 29 30 28 27 27 28 28 27 27 27 29 31 32 33
39 37 34 29 30 25 24 24 26 27 30 29 29 31 32 31 30 28 25 23 21 19 21 22 23 25 27 27 29 30 31 30 30 29 28 29 30 31 31 32 31 32 33
40 34 19 17 19 22 24 25 26 27 29 30 31 31 30 27 25 22 20 17 19 18 14 12 10 11 11 12 13 15 15 16 17 17 17 18 20 22 24 25 25 26 26
14 15 17 18 21 21 21 25 27 28 29 27 26 24 21 18 19 17 17 17 17 14 13 12 13 14 14 16 17 18 17 17 15 14 16 18 20 22 25 25 25 25 26
14 17 17 19 17 19 24 25 26 24 21 21 22 19 15 14 16 16 15 16 17 15 14 14 15 15 15 14 16 16 17 17 17 17 18 20 22 24 27 27 29 30 31
18 18 16 16 18 23 24 24 21 19 19 17 15 14 13 14 14 15 15 15 15 16 16 14 14 14 13 11 14 17 22 25 26 27 27 26 27 29 31 34 40 39 37
13 13 15 19 23 23 22 21 18 17 18 16 15 13 13 14 15 14 14 15 16 13 11 10 11 14 16 17 18 20 23 25 27 28 28 31 34 34 36 40 46 45 46
12 14 17 20 23 23 23 22 20 19 19 18 16 15 14 14 14 14 14 14 12 12 13 16 18 18 19 21 24 25 26 30 31 31 33 33 37 37 43 45 46 47 49
15 17 20 22 23 23 23 22 22 22 22 19 17 15 14 14 14 14 13 13 15 17 18 20 21 23 23 27 29 31 33 36 37 37 39 36 36 44 47 49 52 53 53
18 21 22 24 24 24 24 23 23 24 22 20 16 14 15 17 16 15 16 17 17 17 18 21 22 24 27 31 33 36 38 37 40 41 40 40 43 44 44 46 48 51 53
22 23 24 24 24 23 23 22 21 21 20 18 17 17 17 15 16 18 18 18 17 18 21 24 26 29 27 30 34 35 38 37 39 38 40 42 42 43 46 50 50 49 47
24 24 24 23 22 22 23 22 22 21 21 20 20 18 16 17 19 19 19 20 21 21 23 26 28 29 32 36 35 37 38 41 38 39 40 40 42 44 46 49 50 50 49
25 25 23 22 23 23 23 23 24 23 21 22 19 17 18 19 19 19 20 21 23 24 25 29 30 30 31 36 37 38 40 38 37 38 39 41 42 43 46 49 50 52 52
23 21 22 24 25 25 25 25 24 23 21 19 18 16 19 18 20 20 21 24 24 24 27 31 30 32 34 35 36 38 39 39 40 41 42 44 45 46 47 49 51 52 52
22 25 26 26 27 28 27 26 25 23 21 21 21 21 21 22 21 22 19 23 25 28 32 33 33 36 36 36 38 41 43 45 45 45 46 48 48 48 49 49 51 52 52
26 26 27 27 26 25 25 25 23 23 22 22 23 23 22 23 24 25 29 30 32 32 33 35 38 38 39 40 42 44 46 48 46 46 48 49 50 50 49 49 50 50 51
25 27 27 26 25 23 22 21 21 22 21 20 21 24 25 26 26 26 25 27 30 34 37 39 37 39 40 41 44 46 47 47 46 47 49 51 52 52 50 50 50 50 50
25 26 24 26 20 20 19 18 19 19 21 21 23 26 26 24 21 27 31 34 36 37 39 40 41 42 42 44 47 48 48 45 46 48 52 53 53 53 51 51 49 49 49
25 24 22 22 18 17 17 18 19 20 21 22 23 24 25 26 27 29 28 31 34 38 42 43 44 45 46 48 50 51 52 50 49 53 57 58 55 53 52 50 48 48 48
23 22 20 18 15 16 17 18 19 20 20 18 23 26 23 25 27 31 32 34 38 42 43 44 46 47 50 54 55 54 53 53 55 58 63 64 60 53 51 48 47 47 46
22 20 18 17 16 17 19 19 20 22 24 24 26 26 26 27 29 33 35 36 39 42 45 47 49 51 54 54 55 55 54 56 57 64 68 65 56 51 49 47 47 46 45
21 19 18 17 19 20 20 21 22 23 23 26 26 28 32 35 35 37 39 41 41 43 48 52 51 51 54 55 57 56 58 59 62 70 68 57 51 51 47 46 46 44 41
Wind_Direction
274 282 261 255 275 280 288 294 306 309 295 285 284 288 289 291 294 296 297 294 284 279 276 277 278 281 283 289 290 293 294 292 290 288 279 265 265 258 259 265 258 263 263
284 294 299 300 301 307 312 307 299 289 286 288 287 288 290 291 293 296 299 299 295 285 283 271 272 278 287 290 291 291 287 284 285 280 275 277 271 274 266 268 267 270 266
293 281 289 297 294 299 301 295 291 294 298 296 292 289 288 288 289 290 292 291 291 290 287 280 277 280 285 290 286 283 281 279 276 274 275 275 279 280 283 287 290 285 285
292 295 301 300 296 290 296 298 298 298 296 295 293 293 295 295 297 294 292 289 288 287 287 284 282 281 284 288 290 290 287 285 283 283 281 278 279 283 285 286 285 285 288
289 290 300 289 292 288 293 296 297 300 300 301 301 299 297 297 296 294 291 289 289 290 286 284 282 281 281 280 282 285 285 282 280 279 279 280 281 282 281 283 286 289 287
289 295 299 292 289 290 288 292 293 294 290 291 294 295 294 292 290 289 288 289 290 295 295 290 284 280 281 284 284 280 279 281 281 279 280 282 284 284 283 282 284 287 289
281 284 281 281 281 283 287 287 287 292 297 297 295 292 291 288 285 285 285 288 291 293 301 301 309 305 302 296 294 298 304 305 308 310 302 296 293 291 291 287 285 283 281
261 251 261 272 278 284 288 293 296 296 295 293 292 292 288 287 288 286 292 292 293 298 299 300 294 290 291 296 302 304 303 305 311 304 301 301 304 306 303 299 290 285 284
261 265 267 272 274 283 289 293 295 298 296 299 297 293 291 284 289 292 294 296 300 304 304 300 296 296 297 301 303 306 305 306 304 301 301 300 299 298 296 296 294 294 291
256 258 259 264 276 286 291 295 295 294 299 306 304 295 289 295 299 296 291 295 306 310 302 297 297 298 299 299 303 312 313 314 314 313 311 307 305 304 304 307 307 297 290
251 259 268 275 281 288 292 293 283 289 297 299 299 288 289 294 300 303 303 306 307 302 302 303 306 307 310 314 315 314 311 312 311 308 308 310 306 303 306 308 307 305 292
256 271 281 284 290 291 293 287 278 283 292 297 296 282 285 296 303 304 303 298 296 299 304 306 307 306 306 306 305 305 312 312 308 303 301 303 299 298 303 302 303 297 293
275 288 290 290 289 288 288 282 278 282 289 287 289 285 282 289 293 294 294 298 299 294 293 296 302 306 311 315 311 309 305 311 314 312 313 304 301 301 302 302 301 299 297
286 289 290 288 285 284 282 277 277 277 279 280 283 285 284 278 280 282 284 285 286 290 298 300 302 309 308 306 308 310 310 310 311 309 308 306 306 304 303 301 300 299 296
284 286 283 280 278 277 275 272 271 273 271 273 274 279 278 270 267 269 276 281 288 294 297 300 303 304 300 309 307 307 308 307 308 308 310 311 308 305 303 304 304 300 296
277 279 279 278 279 284 282 274 270 268 272 274 275 269 264 261 266 276 285 293 293 296 300 303 298 298 296 304 307 310 311 311 309 309 309 309 308 308 307 306 304 301 299
277 281 283 284 285 288 285 277 271 268 270 273 264 261 262 269 277 283 287 289 294 298 300 307 305 307 309 311 312 311 312 309 306 305 307 308 308 309 307 305 303 302 301
280 286 287 287 287 287 285 281 271 267 273 267 256 253 258 268 275 284 291 294 292 288 309 313 310 312 312 310 310 311 311 309 307 308 310 311 311 308 307 306 304 302 300
283 287 289 290 288 286 286 283 279 272 266 256 253 255 262 267 281 286 290 307 309 301 300 304 305 305 307 309 310 311 312 311 309 308 310 312 312 310 307 306 305 302 299
287 290 293 296 293 287 282 283 279 270 261 253 256 269 278 282 285 290 291 300 305 308 306 302 301 305 308 306 308 311 312 311 310 311 312 312 312 310 308 308 305 303 300
291 291 294 297 292 285 286 285 276 268 267 271 273 271 276 284 278 293 299 302 302 304 302 302 303 304 305 306 309 311 312 309 310 313 315 315 312 310 311 309 307 305 303
288 294 295 300 288 288 286 281 276 272 270 272 274 279 278 282 274 298 295 301 303 304 304 307 306 303 304 306 308 309 310 310 314 318 317 315 312 310 311 310 308 306 303
291 299 298 301 287 284 283 281 278 274 270 273 278 282 287 291 287 290 292 297 302 308 308 307 305 303 304 306 309 310 311 312 316 317 318 315 311 309 310 310 308 306 303
291 297 299 296 275 276 278 274 274 278 281 288 287 290 284 287 292 293 292 291 300 307 308 306 304 305 308 308 307 307 310 312 314 318 318 316 310 307 309 308 307 306 303
292 295 293 284 272 268 271 274 276 282 279 285 276 284 284 286 290 293 298 303 305 305 306 306 306 310 314 315 316 316 314 312 313 319 317 313 306 307 308 308 307 305 303
286 288 283 275 268 265 270 276 276 278 281 284 283 283 278 281 287 297 300 301 300 302 305 307 311 315 314 313 312 310 309 311 313 315 314 308 307 307 306 306 305 304 303
Height
5874 5874 5868 5864 5839 5855 5855 5856 5856 5859 5861 5861 5860 5858 5857 5856 5855 5854 5853 5851 5850 5848 5846 5843 5843 5842 5841 5839 5837 5837 5835 5834 5833 5834 5833 5834 5834 5834 5835 5836 5834 5835 5836
5864 5862 5859 5855 5849 5847 5847 5851 5856 5857 5855 5854 5852 5850 5849 5848 5847 5846 5844 5842 5840 5839 5837 5836 5835 5834 5832 5831 5830 5829 5828 5827 5826 5826 5825 5825 5824 5825 5826 5826 5826 5827 5827
5861 5859 5857 5855 5851 5847 5846 5848 5848 5847 5846 5845 5845 5843 5842 5841 5840 5837 5835 5833 5831 5829 5828 5826 5826 5825 5822 5821 5820 5820 5819 5818 5816 5815 5816 5817 5817 5816 5815 5816 5817 5818 5817
5849 5846 5844 5843 5843 5842 5841 5840 5839 5839 5839 5837 5837 5836 5834 5833 5829 5828 5827 5825 5824 5822 5820 5819 5818 5817 5815 5814 5813 5813 5812 5811 5810 5808 5806 5807 5807 5807 5806 5806 5807 5807 5807
5840 5840 5837 5837 5837 5836 5834 5833 5832 5830 5830 5829 5828 5828 5827 5825 5824 5822 5820 5818 5816 5815 5814 5811 5810 5809 5808 5809 5806 5806 5806 5805 5803 5801 5801 5800 5799 5799 5798 5797 5796 5795 5795
5830 5830 5829 5828 5829 5830 5829 5829 5827 5825 5826 5824 5822 5820 5819 5819 5817 5816 5813 5811 5810 5809 5807 5804 5803 5801 5801 5800 5799 5799 5798 5795 5794 5794 5793 5792 5791 5790 5790 5790 5789 5787 5787
5821 5823 5824 5824 5824 5825 5825 5825 5824 5820 5817 5816 5815 5814 5813 5811 5810 5808 5806 5806 5805 5803 5801 5800 5795 5795 5795 5794 5794 5792 5791 5790 5789 5789 5787 5786 5785 5784 5784 5782 5781 5780 5779
5814 5817 5818 5819 5820 5820 5820 5818 5816 5815 5813 5811 5809 5807 5805 5803 5802 5802 5801 5800 5800 5798 5796 5793 5792 5791 5791 5790 5789 5788 5786 5786 5786 5785 5783 5782 5781 5779 5777 5777 5776 5776 5774
5810 5811 5813 5814 5815 5815 5815 5814 5812 5809 5807 5804 5802 5800 5799 5799 5799 5798 5797 5796 5794 5792 5789 5789 5788 5787 5788 5787 5785 5783 5782 5781 5781 5780 5780 5778 5776 5773 5770 5769 5768 5767 5765
5808 5809 5810 5810 5810 5810 5808 5807 5805 5804 5802 5799 5797 5796 5796 5795 5793 5793 5792 5790 5788 5786 5784 5784 5784 5783 5782 5782 5781 5779 5777 5776 5774 5773 5771 5769 5767 5764 5760 5757 5756 5755 5753
5804 5804 5805 5805 5806 5804 5802 5801 5800 5798 5796 5794 5792 5791 5790 5790 5789 5788 5786 5784 5783 5782 5781 5781 5781 5780 5778 5777 5776 5774 5772 5770 5767 5765 5763 5760 5756 5754 5752 5748 5745 5742 5740
5800 5800 5800 5800 5799 5797 5796 5795 5794 5792 5791 5788 5787 5786 5785 5785 5784 5783 5781 5780 5779 5779 5778 5777 5775 5774 5773 5772 5770 5768 5766 5763 5760 5758 5756 5754 5750 5747 5744 5739 5735 5731 5728
5796 5795 5794 5793 5792 5791 5790 5788 5787 5786 5785 5783 5782 5780 5780 5779 5779 5778 5777 5776 5776 5775 5773 5772 5771 5770 5768 5765 5762 5760 5757 5754 5751 5749 5746 5742 5738 5735 5731 5727 5722 5717 5713
5790 5789 5788 5787 5786 5785 5784 5782 5781 5780 5780 5779 5777 5775 5775 5775 5775 5775 5774 5773 5772 5771 5770 5768 5766 5763 5760 5758 5756 5753 5750 5745 5742 5739 5735 5731 5726 5722 5718 5713 5709 5703 5698
5784 5784 5783 5782 5781 5779 5778 5777 5776 5775 5774 5773 5772 5771 5771 5770 5771 5770 5769 5768 5767 5766 5764 5762 5759 5757 5755 5752 5749 5746 5742 5738 5733 5728 5723 5718 5713 5709 5704 5698 5692 5687 5683
5779 5778 5776 5775 5774 5772 5771 5770 5770 5769 5768 5767 5766 5766 5766 5765 5765 5764 5763 5762 5761 5760 5758 5755 5752 5750 5747 5744 5740 5736 5731 5725 5721 5717 5713 5707 5701 5695 5689 5683 5677 5672 5667
5773 5771 5770 5768 5767 5765 5764 5763 5763 5762 5761 5761 5760 5760 5760 5759 5759 5758 5757 5755 5753 5751 5749 5747 5744 5741 5737 5733 5729 5724 5721 5716 5711 5706 5700 5694 5688 5681 5675 5669 5662 5656 5649
5766 5765 5764 5762 5760 5758 5756 5756 5755 5755 5755 5755 5754 5753 5752 5752 5751 5750 5748 5747 5745 5743 5741 5738 5734 5731 5727 5723 5719 5714 5710 5705 5699 5693 5687 5680 5674 5667 5660 5654 5647 5639 5633
5760 5759 5756 5754 5753 5751 5749 5748 5747 5747 5747 5747 5746 5745 5744 5744 5744 5743 5741 5740 5737 5735 5732 5729 5726 5722 5718 5714 5709 5704 5699 5693 5687 5681 5674 5667 5660 5653 5645 5638 5631 5625 5619
5753 5750 5748 5747 5745 5743 5741 5740 5739 5739 5738 5738 5738 5739 5738 5738 5736 5735 5733 5730 5729 5726 5724 5721 5717 5713 5708 5704 5699 5693 5687 5680 5673 5666 5660 5653 5646 5639 5631 5623 5617 5610 5603
5745 5743 5741 5739 5737 5736 5734 5733 5732 5731 5731 5732 5733 5732 5731 5730 5728 5728 5726 5723 5721 5719 5716 5712 5706 5702 5697 5692 5686 5680 5673 5667 5660 5653 5646 5638 5630 5624 5616 5609 5602 5595 5588
5737 5736 5734 5732 5730 5728 5727 5726 5725 5724 5725 5725 5725 5724 5723 5722 5720 5719 5718 5715 5712 5710 5706 5701 5695 5690 5686 5680 5674 5667 5660 5653 5645 5637 5630 5622 5615 5608 5600 5593 5586 5579 5573
5729 5728 5727 5724 5722 5721 5720 5719 5719 5719 5718 5718 5717 5716 5715 5714 5712 5712 5709 5706 5703 5699 5695 5689 5684 5678 5673 5666 5660 5653 5645 5637 5629 5622 5615 5607 5599 5592 5585 5577 5570 5564 5557
5722 5721 5719 5717 5715 5715 5714 5713 5712 5712 5711 5711 5710 5709 5707 5706 5705 5703 5700 5697 5693 5688 5683 5677 5672 5665 5659 5652 5644 5637 5630 5622 5615 5607 5599 5591 5583 5576 5568 5562 5555 5549 5543
5714 5713 5712 5710 5709 5708 5708 5706 5706 5705 5704 5704 5703 5701 5699 5698 5697 5693 5689 5685 5681 5676 5671 5665 5659 5652 5645 5636 5628 5621 5615 5608 5600 5592 5583 5575 5567 5560 5553 5547 5540 5534 5528
5706 5705 5704 5703 5702 5701 5701 5700 5699 5698 5697 5696 5694 5693 5691 5688 5686 5683 5678 5674 5669 5664 5658 5653 5645 5638 5630 5623 5615 5609 5601 5593 5584 5575 5566 5557 5550 5544 5538 5532 5526 5520 5514